Regional Weather Roundup
Issued by NWS

Home | Current Version | Previous Version | Graphics & Text | Print | Product List | Glossary On
Versions: 1 2 3 4 5 6 7 8 9 10 11 12 13 14 15 16 17 18 19 20 21 22 23 24 25 26 27 28 29 30 31 32 33 34 35 36 37 38 39 40 41 42 43 44 45 46 47 48 49 50
000
ASUS43 KLOT 281410
RWRIL

ILLINOIS REGIONAL WEATHER ROUNDUP
NATIONAL WEATHER SERVICE CHICAGO/ROMEOVILLE IL
ISSUED BY NATIONAL WEATHER SERVICE LINCOLN IL
900 AM CDT THU JUL 28 2016

NOTE:  "FAIR" INDICATES FEW OR NO CLOUDS BELOW 12,000 FEET...WITH
       NO SIGNIFICANT WEATHER AND/OR OBSTRUCTIONS TO VISIBILITY.

       STATIONS INDICATED WITH AN "*" ARE NOT UNDER NWS QUALITY
       CONTROL AND MAY ALSO NOT REPORT PRECIPITATION OR OBSTRUCTIONS
       TO VISIBILITY.

ILZ001-002-007-009-015-016-024-281500-
NORTHWEST ILLINOIS...

CITY           SKY/WX    TMP DP  RH WIND       PRES   REMARKS
MOLINE         SUNNY     80  69  69 CALM      29.90F HX  83
SAVANNA*       SUNNY     76  72  87 CALM      29.90F
STERLING*      MOSUNNY   77  72  84 CALM      29.91S
$$

ILZ003-004-008-010-011-017>019-281500-
NORTH CENTRAL ILLINOIS...

CITY           SKY/WX    TMP DP  RH WIND       PRES   REMARKS
ROCKFORD       MOSUNNY   76  67  73 E5        29.92F
FREEPORT*      MOSUNNY   74  71  90 SE3       29.93F
ROCHELLE*      SUNNY     77  72  86 CALM      29.92F
DE KALB*       SUNNY     78  72  80 E3        29.93F HX  81
LASALLE PERU*  MOSUNNY   78  72  82 SE3       29.91F HX  81
$$

ILZ005-006-012>014-020>023-281500-
NORTHEAST ILLINOIS...

CITY           SKY/WX    TMP DP  RH WIND       PRES   REMARKS
O`HARE         PTSUNNY   80  69  69 VRB5      29.91F HX  83
MIDWAY         PTSUNNY   81  69  67 E7        29.91F HX  84
NORTHERLY IS*  NOT AVBL
AURORA*        SUNNY     80  70  71 CALM      29.92S HX  83
LANSING*       CLOUDY    78  69  72 CALM      29.92S HX  80
JOLIET*        PTSUNNY   79  73  80 S3        29.91F HX  82
WAUKEGAN       MOSUNNY   76  70  82 E9        29.92F
WEST CHICAGO   MOSUNNY   79  69  71 SE3       29.91F HX  81
WHEELING       CLOUDY    76  70  82 NE6       29.93S
KANKAKEE*      CLOUDY    74  69  85 CALM      29.92F
MORRIS*        PTSUNNY   77  73  87 CALM      29.91S
ROMEOVILLE     PTSUNNY   78  69  73 CALM      29.92S HX  81
$$

LMZ740>745-777-779-281500-
SOUTHERN LAKE MICHIGAN...

STATION/POSITION TIME  TEMP    WIND        PRES    WAVE
                       AIR SEA DIR/SP/G            HT/PER
                 (UTC) (F)     (DEG/KT/KT) (MB)    (FT/S)
SOUTHERN BUOY    1350   74 74  100/  6/  6 1012.7R   1
WAUKEGAN HARBOR  1300   71      20/  8/  9   N/A
WILMETTE HARBOR  1400   74 70   90/  4/  4   N/A     1/ 3
MONTROSE BEACH   NOT AVBL
NORTHERLY ISLAND 1400   77      90/  3/  4   N/A
HARRISON CRIB    1300   76     100/  9/ 10   N/A
CALUMET HARBOR   1300   78      60/  2/  3 1012.6R
CALUMET BEACH    NOT AVBL
BURNS HARBOR     1300   76        CALM     1013.9R
MICHIGAN CITY    1400   78 78   CALM  /  2   N/A     0
$$

ILZ025>027-034>036-040-047-049-050-058-095>099-281500-
WEST CENTRAL ILLINOIS...

CITY           SKY/WX    TMP DP  RH WIND       PRES   REMARKS
GALESBURG*     MOSUNNY   77  70  80 NW7       29.91S
MACOMB*        MOSUNNY   76  71  84 NW5       29.94S
JACKSONVILLE*  MOSUNNY   76  72  87 W5        29.91R
MOUNT STERLING MOSUNNY   74  70  85 NW8       29.92R
PITTSFIELD*    MOSUNNY   76  70  83 W5        29.94R
QUINCY         SUNNY     76  73  91 NW7       29.93R
$$

ILZ028>032-037-038-041>044-048-051>054-059>061-281500-
CENTRAL ILLINOIS...

CITY           SKY/WX    TMP DP  RH WIND       PRES   REMARKS
BLOOMINGTON*   MOSUNNY   77  70  79 SE5       29.93S
DECATUR        PTSUNNY   75  72  90 E6        29.92S
LACON*         MOSUNNY   78  71  80 E3        29.90F HX  80
LINCOLN*       CLOUDY    76  75  96 SE5       29.91F
LITCHFIELD*      N/A    N/A N/A N/A MISG        N/A
PEORIA         SUNNY     80  74  81 E6        29.90F HX  85
PONTIAC*       CLOUDY    76  74  91 CALM      29.93S
SPRINGFIELD    SUNNY     81  73  76 NE5       29.90S HX  86
TAYLORVILLE*   CLOUDY    76  75  96 MISG      29.91F FOG
$$

ILZ033-039-045-046-055>057-062-063-281500-
EAST CENTRAL ILLINOIS...

CITY           SKY/WX    TMP DP  RH WIND       PRES   REMARKS
CHAMPAIGN      LGT RAIN  70  67  90 E5        29.92S
DANVILLE*      LGT RAIN  73  71  91 N3        29.92R
MATTOON        CLOUDY    76  71  85 E3        29.92R
PARIS*         CLOUDY    75  75  99 CALM      29.93S
RANTOUL*       NOT AVBL
$$

ILZ064-065-069-070-074-075-100>102-281500-
SOUTHWEST AND SOUTH CENTRAL ILLINOIS...

CITY           SKY/WX    TMP DP  RH WIND       PRES   REMARKS
ALTON          NOT AVBL
BELLEVILLE     MOSUNNY   82  76  82 CALM      29.89S HX  89
CENTRALIA*     CLOUDY    78  75  90 CALM      29.91S HX  81
EAST ST LOUIS  SUNNY     81  72  74 W5        29.90S HX  85
MT VERNON*     CLOUDY    77  70  78 MISG      29.91S
SALEM*         PTSUNNY   78  74  86 CALM      29.92R HX  81
$$

ILZ066>068-071>073-076>078-281500-
SOUTHEAST ILLINOIS...

CITY           SKY/WX    TMP DP  RH WIND       PRES   REMARKS
CARMI*         CLOUDY    76  73  93 SW6       29.92R
EFFINGHAM*     CLOUDY    75  74  98 S3        29.93S
FAIRFIELD*     CLOUDY    75  73  93 CALM      29.91S
FLORA*         CLOUDY    78  75  92 SW5       29.92S
LAWRENCEVILLE  CLOUDY    76  73  91 W3        29.92S
MT CARMEL*     CLOUDY    76  72  88 SW6       29.93R
OLNEY-NOBLE*   CLOUDY    73  73 100 CALM      29.93S
ROBINSON*      CLOUDY    76  73  92 CALM      29.93R
$$

ILZ079>094-281500-
FAR SOUTHERN ILLINOIS...

CITY           SKY/WX    TMP DP  RH WIND       PRES   REMARKS
CARBONDALE     CLOUDY    77  72  84 SW8       29.92S
CAIRO          CLOUDY    76  74  96 CALM      29.93R
HARRISBURG*    CLOUDY    76  74  93 SW3       29.93R
MARION         PTSUNNY   77  75  94 S7        29.93S
METROPOLIS*    CLOUDY    76  74  95 CALM      29.94R
SPARTA*        PTSUNNY   78  73  86 W3        29.92S HX  80
$$

ABBREVIATIONS USED IN REMARKS:
       TC -- TEMPERATURE IN CELSIUS
      WCI -- WIND CHILL INDEX
       HX -- HEAT INDEX
      VSB -- VISIBILITY IN MILES




USA.gov is the U.S. government's official web portal to all federal, state and local government web resources and services.